TimeEEST,TemperatureF,Dew PointF,Humidity,Sea Level PressureIn,VisibilityMPH,Wind Direction,Wind SpeedMPH,Gust SpeedMPH,PrecipitationIn,Events,Conditions,WindDirDegrees,DateUTC
2:50 AM,60.8,55.4,82,29.86,6.2,NNW,5.8,-,N/A,,Partly Cloudy,340,2012-10-08 23:50:00
3:20 AM,60.8,55.4,82,29.83,6.2,NNW,5.8,-,N/A,,Partly Cloudy,340,2012-10-09 00:20:00
5:50 AM,59.0,53.6,82,29.83,-9999.0,NNW,4.6,-,N/A,,Clear,340,2012-10-09 02:50:00
6:20 AM,59.0,53.6,82,29.83,-9999.0,Calm,Calm,-,N/A,,Clear,0,2012-10-09 03:20:00
6:50 AM,59.0,53.6,82,29.83,-9999.0,Calm,Calm,-,N/A,,Clear,0,2012-10-09 03:50:00
7:20 AM,57.2,53.6,88,29.86,-9999.0,Calm,Calm,-,N/A,,Clear,0,2012-10-09 04:20:00
7:50 AM,57.2,53.6,88,29.86,-9999.0,Calm,Calm,-,N/A,,Clear,0,2012-10-09 04:50:00
8:20 AM,60.8,55.4,82,29.86,-9999.0,Calm,Calm,-,N/A,,Clear,0,2012-10-09 05:20:00
8:50 AM,64.4,57.2,77,29.86,-9999.0,Calm,Calm,-,N/A,,Clear,0,2012-10-09 05:50:00
9:50 AM,69.8,59.0,68,29.89,-9999.0,Calm,Calm,-,N/A,,Clear,0,2012-10-09 06:50:00
10:50 AM,78.8,57.2,47,29.89,-9999.0,Calm,Calm,-,N/A,,Clear,0,2012-10-09 07:50:00
11:20 AM,77.0,59.0,54,29.89,6.2,Calm,Calm,-,N/A,,Partly Cloudy,0,2012-10-09 08:20:00
11:50 AM,78.8,59.0,51,29.89,6.2,Calm,Calm,-,N/A,,Scattered Clouds,0,2012-10-09 08:50:00
12:20 PM,78.8,59.0,51,29.89,6.2,South,6.9,-,N/A,,Partly Cloudy,170,2012-10-09 09:20:00
12:50 PM,78.8,60.8,54,29.89,6.2,SSE,8.1,-,N/A,,Scattered Clouds,160,2012-10-09 09:50:00
1:20 PM,78.8,59.0,51,29.86,6.2,SSE,8.1,-,N/A,,Scattered Clouds,160,2012-10-09 10:20:00
1:50 PM,78.8,60.8,54,29.86,6.2,South,10.4,-,N/A,,Scattered Clouds,170,2012-10-09 10:50:00
2:20 PM,80.6,59.0,48,29.86,6.2,South,10.4,-,N/A,,Scattered Clouds,170,2012-10-09 11:20:00
2:50 PM,78.8,62.6,57,29.83,6.2,South,9.2,-,N/A,,Mostly Cloudy,170,2012-10-09 11:50:00
3:20 PM,78.8,60.8,54,29.83,6.2,SSE,10.4,-,N/A,,Mostly Cloudy,150,2012-10-09 12:20:00
3:50 PM,77.0,60.8,57,29.83,5.6,SSE,5.8,-,N/A,Rain-Thunderstorm,Light Thunderstorms and Rain,150,2012-10-09 12:50:00
4:20 PM,69.8,64.4,83,29.83,6.2,Calm,Calm,-,N/A,Rain,Light Rain,0,2012-10-09 13:20:00
4:50 PM,69.8,66.2,88,29.83,6.2,Calm,Calm,-,N/A,,Scattered Clouds,0,2012-10-09 13:50:00
5:20 PM,71.6,66.2,83,29.83,6.2,NNW,4.6,-,N/A,,Scattered Clouds,330,2012-10-09 14:20:00
5:50 PM,71.6,66.2,83,29.83,6.2,Calm,Calm,-,N/A,,Scattered Clouds,0,2012-10-09 14:50:00
6:20 PM,71.6,66.2,83,29.83,6.2,Calm,Calm,-,N/A,,Scattered Clouds,0,2012-10-09 15:20:00
6:50 PM,69.8,66.2,88,29.83,6.2,Calm,Calm,-,N/A,,Scattered Clouds,0,2012-10-09 15:50:00
7:20 PM,69.8,66.2,88,29.83,6.2,Calm,Calm,-,N/A,,Scattered Clouds,0,2012-10-09 16:20:00
7:50 PM,68.0,64.4,88,29.83,6.2,Calm,Calm,-,N/A,,Scattered Clouds,0,2012-10-09 16:50:00
8:20 PM,66.2,64.4,94,29.86,6.2,Calm,Calm,-,N/A,,Scattered Clouds,0,2012-10-09 17:20:00
8:50 PM,66.2,64.4,94,29.86,6.2,Calm,Calm,-,N/A,,Scattered Clouds,0,2012-10-09 17:50:00
9:50 PM,64.4,62.6,94,29.86,6.2,NNW,5.8,-,N/A,,Partly Cloudy,330,2012-10-09 18:50:00
11:50 PM,62.6,60.8,94,29.86,6.2,Calm,Calm,-,N/A,,Partly Cloudy,0,2012-10-09 20:50:00